TITAN 3C TRANSTAGE DEB, 43283

Orbit data source: Space-Track

TITAN 3C TRANSTAGE DEB, 43283 is space debris in GEO originally from a launch on Sun, 09 Feb 1969 UTC launched from the Air Force Eastern Test Range (AFETR). Debris objects in space refer to the collection of defunct objects orbiting the Earth. Examples of debris include non-operational satellites, rocket bodies, and fragments generated from explosions, collisions, or faulty payload assembly.

Loading next visibility...
Identifier
43283, 1969-013D
Orbit
GEO
Last TLE update
3 weeks ago
Origin
Manufacturer
Martin Marietta
Mission
Spacecraft
Bus & Motor
Unknown
Mass
Unknown
Launch date (UTC)
1969-02-09 (56 years ago)
Launch vehicle
Unknown
Launch site
Air Force Eastern Test Range (AFETR)
Object type
Payload
Rocket body
Debris
Shape & HBR
Unknown
Radar Cross Section
RCS unknown

Expand to show TLE details & history

TLE from 3 weeks ago
0 TITAN 3C TRANSTAGE DEB
1 43283U 69013D   25111.16448923 -.00000089  00000-0  00000-0 0  9994
2 43283   0.3007 121.8542 0326069 106.1625 129.1625  0.93098024 24166
Epoch: 2025-04-21T03:56Z
Definitive object data (Epoch: 2025-04-21T03:56:51.869Z)
Latitude
-0.23895°
Longitude
91.30065°
Altitude
38,870.965 km
Speed
2.936 km/s
True Right ascension
23h 59m 59s
True Declination
0° 14' 19"
Sunlit
Object was in daylight at TLE epoch
Visualization TLE readout
Latitude
0.03736°
Longitude
29.20989°
Altitude
37,378.319 km
Speed
3.037 km/s
Apparent Right ascension
20h 17m 10s
Apparent Declination
-5° 14' 32"
Sunlit
Object is in daylight
Visualization observer readout
Local Sidereal Time
13:50:16
Azimuth
89.726° E
Elevation
-8.513°
Doppler factor
1
Orbital elements
Apogee altitude
39,371.387 km
Perigee altitude
36,482.098 km
Semi-major axis
44,304.879 km
Eccentricity
0.0326069
Inclination
0.3007°
RAAN
121.8542°
Arg. of periapsis
106.1625°
True anomaly
131.9857°
Mean anomaly
129.1625°
Eccentric anomaly
130.58139°
Mean motion
0.23274 °/min
BSTAR
Unknown
Orbital period
1546.81 mins
Loading historical data...
43283 neighbors
Loading maneuver chart data...
Loading SW <> Apogee altitude chart data...

TITAN 3C TRANSTAGE DEB Visibility forecast

Observer location: undefined°, undefined°

Span
Click to sort rows by Start time (UTC) header in descending order
Start Az.
Max El. time (UTC)
Max El. Az.
Max El.
End time (UTC)
End Az.
467 mins2025-05-09 21:54:33.992Z105.889° ESE2025-05-10 05:41:33.992Z107.537° ESE11.536°2025-05-10 05:41:33.992Z107.537° ESE
|